This is the latest recevied weather packets stored in our database for station/object WD8INF-9. If no packets are shown the sender has not sent any weather packets the latest 10 day(s).
| Time | Temp. | Humidity | Pressure | Rain* | Wind** | Luminosity | Snow |
|---|---|---|---|---|---|---|---|
| 1777688817 | 7.78° C | - | 1015.9 hPa | 0 mm | - | - | - |
| 1777688516 | 7.78° C | - | 1016 hPa | 0 mm | - | - | - |
| 1777688215 | 7.78° C | - | 1016 hPa | 0 mm | - | - | - |
| 1777687914 | 7.78° C | - | 1016 hPa | 0 mm | - | - | - |
| 1777687614 | 7.78° C | - | 1015.8 hPa | 0 mm | - | - | - |
| 1777687314 | 7.22° C | - | 1015.7 hPa | 0 mm | - | - | - |
| 1777687014 | 7.22° C | - | 1015.4 hPa | 0 mm | - | - | - |
| 1777686714 | 7.22° C | - | 1015.4 hPa | 0 mm | - | - | - |
| 1777686413 | 7.22° C | - | 1015.4 hPa | 0 mm | - | - | - |
| 1777686113 | 6.67° C | - | 1015.4 hPa | 0 mm | - | - | - |
| 1777685813 | 6.67° C | - | 1015.4 hPa | 0 mm | - | - | - |
| 1777685513 | 7.22° C | - | 1015.4 hPa | 0 mm | - | - | - |
| 1777685212 | 7.22° C | - | 1015.2 hPa | 0 mm | - | - | - |
| 1777684912 | 7.22° C | - | 1015.2 hPa | 0 mm | - | - | - |
| 1777684612 | 7.22° C | - | 1014.9 hPa | 0 mm | - | - | - |
| 1777684312 | 7.78° C | - | 1014.9 hPa | 0 mm | - | - | - |
| 1777684012 | 7.78° C | - | 1014.8 hPa | 0 mm | - | - | - |
| 1777683711 | 8.33° C | - | 1014.7 hPa | 0 mm | - | - | - |
| 1777683411 | 8.33° C | - | 1014.6 hPa | 0 mm | - | - | - |
| 1777683111 | 8.89° C | - | 1014.4 hPa | 0 mm | - | - | - |
| 1777682810 | 8.89° C | - | 1014 hPa | 0 mm | - | - | - |
| 1777682510 | 8.89° C | - | 1013.8 hPa | 0 mm | - | - | - |
| 1777682210 | 8.89° C | - | 1014 hPa | 0 mm | - | - | - |
| 1777681909 | 9.44° C | - | 1013.9 hPa | 0 mm | - | - | - |
| 1777681609 | 9.44° C | - | 1014 hPa | 0 mm | - | - | - |
* Rain since midnight (hover to see other rain measurements)
** Current wind speed in m/s (hover to see current wind gust speed)